Weather History for Baudette, MN

Change the Weather History Date:

Monday, March 18, 2013

  Actual Average Record
Temperature  
Mean Temperature 18 °F -  
Max Temperature 26 °F 37 °F 77 °F (2012)
Min Temperature 10 °F 15 °F -22 °F (1939)
Degree Days  
Heating Degree Days 47    
Moisture  
Dew Point 16 °F    
Average Humidity 87    
Maximum Humidity 93    
Minimum Humidity 79    
Precipitation  
Precipitation 0.24 in - - ()
Sea Level Pressure  
Sea Level Pressure 29.58 in    
Wind  
Wind Speed 11 mph (East)    
Max Wind Speed 29 mph    
Max Gust Speed 34 mph    
Visibility 2 miles    
Events Fog , Snow    
Averages and records for this station are not official NWS values.
T = Trace of Precipitation, MM = Missing Value Source: NWS Daily Summary

Daily Weather History Graph

Daily Weather History Graph

Search for Another Location

Airport:

Trip Planner

Search our weather history database for the weather conditions in past years. The results will help you decide how hot, cold, wet, or windy it might be!

Date:

Astronomy

Mar. 18, 2013 Rise Set
Actual Time 7:24 AM CDT 7:28 PM CDT
Civil Twilight 6:53 AM CDT 8:00 PM CDT
Nautical Twilight 6:16 AM CDT 8:37 PM CDT
Astronomical Twilight 5:38 AM CDT 9:15 PM CDT
Moon 10:56 AM CDT (3/18) 1:56 AM CDT (3/18)
Length of Visible Light 13h 06m
Length of Day
12h 03m
Waxing Crescent, 41% of the Moon is Illuminated
Mar 18
Waxing Crescent
Mar 19
First Quarter
Mar 27
Full
Apr 2
Last Quarter
Apr 10
New

Hourly Weather History & Observations

Time (CDT) Temp. Windchill Dew Point Humidity Pressure Visibility Wind Dir Wind Speed Gust Speed Precip Events Conditions
12:00 AM 17.6 °F 6.4 °F 15.8 °F 93% 29.73 in 1.0 mi SE 9.2 mph - 0.00 in Snow Light Snow
12:19 AM 17.6 °F 7.3 °F 15.8 °F 93% 29.73 in 0.5 mi SE 8.1 mph - 0.02 in Fog , Snow Snow
12:34 AM 17.6 °F 7.3 °F 15.8 °F 93% 29.72 in 0.5 mi SE 8.1 mph - 0.03 in Fog , Snow Snow
12:53 AM 18.0 °F 7.7 °F 16.0 °F 92% 29.80 in 0.5 mi SSE 8.1 mph - 0.05 in Fog , Snow Snow
1:24 AM 17.6 °F 9.3 °F 15.8 °F 93% 29.71 in 0.8 mi SE 5.8 mph - 0.04 in Snow Light Snow
1:53 AM 19.0 °F 9.0 °F 16.0 °F 88% 29.75 in 1.0 mi SE 8.1 mph - 0.06 in Snow Light Snow
2:00 AM 19.4 °F 10.4 °F 15.8 °F 86% 29.68 in 1.0 mi SE 6.9 mph - 0.00 in Snow Light Snow
2:08 AM 19.4 °F 10.4 °F 15.8 °F 86% 29.68 in 1.2 mi SE 6.9 mph - 0.00 in Snow Light Snow
2:16 AM 19.4 °F 9.5 °F 15.8 °F 86% 29.67 in 1.0 mi SE 8.1 mph - 0.00 in Snow Light Snow
2:45 AM 19.4 °F 7.9 °F 15.8 °F 86% 29.65 in 1.0 mi ESE 10.4 mph - 0.01 in Snow Light Snow
2:53 AM 19.0 °F 6.8 °F 16.0 °F 88% 29.71 in 1.0 mi ESE 11.5 mph - 0.02 in Snow Light Snow
3:02 AM 19.4 °F 8.6 °F 15.8 °F 86% 29.64 in 1.5 mi ESE 9.2 mph - 0.00 in Snow Light Snow
3:05 AM 19.4 °F 7.9 °F 15.8 °F 86% 29.64 in 2.0 mi ESE 10.4 mph - 0.00 in Snow Light Snow
3:14 AM 19.4 °F 7.9 °F 15.8 °F 86% 29.63 in 5.0 mi ESE 10.4 mph - 0.00 in Snow Light Snow
3:37 AM 19.4 °F 7.9 °F 15.8 °F 86% 29.62 in 9.0 mi SE 10.4 mph - 0.00 in   Overcast
3:53 AM 19.0 °F 8.2 °F 16.0 °F 88% 29.68 in 10.0 mi SE 9.2 mph - 0.00 in   Overcast
4:03 AM 19.4 °F 7.9 °F 15.8 °F 86% 29.60 in 4.0 mi ESE 10.4 mph - 0.00 in Snow Light Snow
4:12 AM 19.4 °F 9.5 °F 15.8 °F 86% 29.60 in 2.0 mi ESE 8.1 mph - 0.00 in Snow Light Snow
4:20 AM 19.4 °F 7.9 °F 15.8 °F 86% 29.59 in 2.0 mi SE 10.4 mph - 0.00 in Snow Light Snow
4:26 AM 19.4 °F 9.5 °F 15.8 °F 86% 29.59 in 1.2 mi SE 8.1 mph - 0.00 in Snow Light Snow
4:35 AM 19.4 °F 8.6 °F 15.8 °F 86% 29.58 in 1.0 mi ESE 9.2 mph - 0.01 in Snow Light Snow
4:45 AM 19.4 °F 8.6 °F 17.6 °F 93% 29.58 in 0.8 mi ESE 9.2 mph - 0.01 in Snow Light Snow
4:53 AM 19.0 °F 8.2 °F 17.1 °F 92% 29.63 in 0.8 mi ESE 9.2 mph - 0.01 in Snow Light Snow
5:01 AM 19.4 °F 8.6 °F 17.6 °F 93% 29.57 in 1.2 mi ESE 9.2 mph - 0.00 in Snow Light Snow
5:11 AM 19.4 °F 7.9 °F 17.6 °F 93% 29.56 in 1.5 mi ESE 10.4 mph - 0.00 in Snow Light Snow
5:27 AM 19.4 °F 7.2 °F 17.6 °F 93% 29.55 in 1.8 mi ESE 11.5 mph - 0.01 in Snow Light Snow
5:48 AM 19.4 °F 7.2 °F 17.6 °F 93% 29.54 in 2.0 mi ESE 11.5 mph - 0.01 in Snow Light Snow
5:53 AM 19.4 °F 7.2 °F 17.6 °F 93% 29.54 in 2.0 mi ESE 11.5 mph - N/A Snow Light Snow
6:00 AM 19.4 °F 7.2 °F 17.6 °F 93% 29.54 in 1.2 mi ESE 11.5 mph - 0.00 in Snow Light Snow
6:09 AM 19.4 °F 6.6 °F 17.6 °F 93% 29.54 in 1.0 mi ESE 12.7 mph - 0.00 in Snow Light Snow
6:17 AM 19.4 °F 7.9 °F 17.6 °F 93% 29.53 in 0.8 mi ESE 10.4 mph - 0.00 in Snow Light Snow
6:28 AM 19.4 °F 7.2 °F 17.6 °F 93% 29.53 in 1.0 mi ESE 11.5 mph - 0.01 in Snow Light Snow
6:44 AM 19.4 °F 6.6 °F 17.6 °F 93% 29.53 in 1.5 mi ESE 12.7 mph - 0.01 in Snow Light Snow
6:53 AM 19.9 °F 7.9 °F 17.1 °F 89% 29.59 in 2.0 mi ESE 11.5 mph - 0.01 in Snow Light Snow
6:59 AM 19.4 °F 7.2 °F 17.6 °F 93% 29.52 in 3.0 mi ESE 11.5 mph - 0.00 in Snow Light Snow
7:19 AM 19.4 °F 6.6 °F 17.6 °F 93% 29.51 in 2.0 mi ESE 12.7 mph - 0.00 in Snow Light Snow
7:30 AM 19.4 °F 7.9 °F 17.6 °F 93% 29.50 in 1.8 mi East 10.4 mph - 0.00 in Snow Light Snow
7:44 AM 19.4 °F 7.9 °F 17.6 °F 93% 29.50 in 2.0 mi ESE 10.4 mph - 0.00 in Snow Light Snow
7:49 AM 19.4 °F 8.6 °F 17.6 °F 93% 29.50 in 1.8 mi ESE 9.2 mph - 0.00 in Snow Light Snow
7:53 AM 19.9 °F 8.6 °F 17.1 °F 89% 29.56 in 1.0 mi ESE 10.4 mph - 0.00 in Snow Light Snow
8:02 AM 19.4 °F 7.2 °F 17.6 °F 93% 29.49 in 0.8 mi ESE 11.5 mph - 0.00 in Snow Light Snow
8:34 AM 19.4 °F 7.9 °F 17.6 °F 93% 29.48 in 0.2 mi East 10.4 mph - 0.01 in Fog , Snow Light Snow
8:53 AM 19.9 °F 7.9 °F 18.0 °F 92% 29.53 in 0.5 mi ESE 11.5 mph - 0.02 in Fog , Snow Light Snow
9:53 AM 21.0 °F 9.9 °F 18.0 °F 88% 29.51 in 0.8 mi ESE 10.4 mph - 0.02 in Snow Light Snow
10:03 AM 21.2 °F 9.5 °F 17.6 °F 86% 29.45 in 1.0 mi ESE 11.5 mph - 0.00 in Snow Light Snow
10:09 AM 21.2 °F 9.5 °F 17.6 °F 86% 29.45 in 1.5 mi ESE 11.5 mph - 0.00 in Snow Light Snow
10:22 AM 21.2 °F 10.9 °F 19.4 °F 93% 29.45 in 1.0 mi ESE 9.2 mph - 0.00 in Snow Light Snow
10:30 AM 21.2 °F 10.1 °F 19.4 °F 93% 29.45 in 0.5 mi ESE 10.4 mph - 0.00 in Fog , Snow Snow
10:53 AM 23.0 °F 15.8 °F 19.9 °F 88% 29.51 in 0.8 mi ESE 5.8 mph - 0.01 in Snow Light Snow
11:02 AM 23.0 °F 14.7 °F 19.4 °F 86% 29.45 in 1.2 mi ESE 6.9 mph - 0.00 in Snow Light Snow
11:12 AM 23.0 °F 13.1 °F 19.4 °F 86% 29.45 in 1.8 mi ESE 9.2 mph - 0.00 in Snow Light Snow
11:19 AM 23.0 °F 13.1 °F 19.4 °F 86% 29.45 in 2.0 mi ESE 9.2 mph - 0.00 in Snow Light Snow
11:39 AM 24.8 °F 16.9 °F 19.4 °F 80% 29.44 in 1.5 mi East 6.9 mph - 0.00 in Snow Light Snow
11:42 AM 24.8 °F 16.1 °F 19.4 °F 80% 29.44 in 1.2 mi East 8.1 mph - 0.00 in Snow Light Snow
11:53 AM 24.1 °F 18.2 °F 21.0 °F 88% 29.51 in 1.0 mi ESE 4.6 mph - 0.00 in Snow Light Snow
12:06 PM 24.8 °F 17.9 °F 21.2 °F 86% 29.45 in 0.8 mi East 5.8 mph - 0.00 in Snow Light Snow
12:13 PM 24.8 °F 17.9 °F 21.2 °F 86% 29.45 in 1.0 mi East 5.8 mph - 0.00 in Snow Light Snow
12:45 PM 26.6 °F - 21.2 °F 80% 29.45 in 0.8 mi Calm Calm - 0.01 in Snow Light Snow
12:53 PM 26.1 °F 21.9 °F 21.0 °F 81% 29.51 in 0.5 mi NE 3.5 mph - 0.01 in Snow Snow
1:06 PM 26.6 °F 22.6 °F 21.2 °F 80% 29.45 in 0.5 mi NE 3.5 mph - 0.01 in Snow Snow
1:53 PM 26.1 °F 21.9 °F 21.9 °F 84% 29.51 in 0.8 mi NNW 3.5 mph - 0.02 in Snow Light Snow
2:03 PM 26.6 °F 18.2 °F 23.0 °F 86% 29.45 in 1.0 mi NW 8.1 mph - 0.00 in Snow Light Snow
2:12 PM 24.8 °F 14.6 °F 21.2 °F 86% 29.45 in 1.2 mi NW 10.4 mph - 0.00 in Snow Light Snow
2:26 PM 24.8 °F 12.4 °F 21.2 °F 86% 29.46 in 1.0 mi NW 15.0 mph - 0.00 in Snow Light Snow
2:33 PM 24.8 °F 11.9 °F 21.2 °F 86% 29.46 in 1.2 mi NW 16.1 mph - 0.00 in Snow Light Snow
2:47 PM 24.8 °F 10.7 °F 21.2 °F 86% 29.46 in 1.5 mi NNW 19.6 mph - 0.00 in Snow Light Snow
2:53 PM 24.1 °F 9.8 °F 21.0 °F 88% 29.52 in 1.0 mi NNW 19.6 mph 25.3 mph 0.00 in Snow Light Snow
3:00 PM 24.8 °F 10.7 °F 19.4 °F 80% 29.47 in 0.5 mi NW 19.6 mph - 0.00 in Fog , Snow Snow
3:11 PM 23.0 °F 9.6 °F 19.4 °F 86% 29.47 in 0.2 mi NNW 16.1 mph 26.5 mph 0.00 in Fog , Snow Snow
3:32 PM 24.8 °F 12.9 °F 19.4 °F 80% 29.48 in 1.2 mi NNW 13.8 mph 23.0 mph 0.00 in Snow Light Snow
3:44 PM 24.8 °F 10.7 °F 19.4 °F 80% 29.49 in 1.5 mi NNW 19.6 mph - 0.00 in Snow Light Snow
3:50 PM 23.0 °F 8.7 °F 19.4 °F 86% 29.49 in 1.2 mi NNW 18.4 mph 28.8 mph 0.00 in Snow Light Snow
3:53 PM 24.1 °F 9.4 °F 19.0 °F 81% 29.55 in 1.0 mi NNW 20.7 mph 28.8 mph 0.00 in Snow Light Snow
4:07 PM 23.0 °F 8.0 °F 19.4 °F 86% 29.50 in 0.8 mi NW 20.7 mph 27.6 mph 0.00 in Snow Light Snow
4:24 PM 21.2 °F 5.2 °F 17.6 °F 86% 29.51 in 1.0 mi NW 21.9 mph 29.9 mph 0.00 in Snow Light Snow
4:31 PM 21.2 °F 5.2 °F 17.6 °F 86% 29.51 in 0.8 mi NNW 21.9 mph 33.4 mph 0.00 in Snow Light Snow
4:34 PM 21.2 °F 3.9 °F 17.6 °F 86% 29.51 in 0.8 mi NNW 26.5 mph 33.4 mph 0.00 in Snow Light Snow
4:53 PM 21.0 °F 5.0 °F 18.0 °F 88% 29.59 in 0.5 mi NW 21.9 mph 28.8 mph 0.00 in Fog , Snow Snow
5:13 PM 19.4 °F 2.1 °F 17.6 °F 93% 29.54 in 0.2 mi NW 24.2 mph 29.9 mph 0.01 in Fog , Snow Snow
5:49 PM 19.4 °F 2.1 °F 15.8 °F 86% 29.57 in 0.8 mi NW 24.2 mph 29.9 mph 0.01 in Snow Light Snow
5:53 PM 19.0 °F 2.4 °F 15.1 °F 85% 29.63 in 0.8 mi NW 21.9 mph 29.9 mph 0.01 in Snow Light Snow
6:53 PM 17.1 °F -2.4 °F 14.0 °F 88% 29.67 in 0.5 mi NW 28.8 mph 34.5 mph 0.00 in Fog , Snow Light Snow
7:22 PM 15.8 °F -2.7 °F 12.2 °F 86% 29.62 in 0.8 mi NW 24.2 mph 33.4 mph 0.00 in Snow Light Snow
7:33 PM 15.8 °F -3.1 °F 12.2 °F 86% 29.63 in 1.0 mi NW 25.3 mph 31.1 mph 0.00 in Snow Light Snow
7:39 PM 15.8 °F -1.5 °F 12.2 °F 86% 29.63 in 1.5 mi NW 20.7 mph 31.1 mph 0.00 in Snow Light Snow
7:53 PM 15.1 °F -2.9 °F 10.9 °F 84% 29.71 in 2.0 mi NW 21.9 mph 29.9 mph 0.00 in Snow Light Snow
8:06 PM 15.8 °F -2.7 °F 10.4 °F 79% 29.65 in 3.0 mi NW 24.2 mph 32.2 mph 0.00 in   Overcast
8:53 PM 14.0 °F -3.4 °F 9.0 °F 80% 29.75 in 5.0 mi NW 19.6 mph 29.9 mph 0.00 in Snow Light Snow
9:05 PM 14.0 °F -3.9 °F 8.6 °F 79% 29.68 in 3.0 mi NW 20.7 mph 29.9 mph 0.00 in Snow Light Snow
9:11 PM 12.2 °F -7.1 °F 8.6 °F 85% 29.68 in 1.8 mi NW 23.0 mph 28.8 mph 0.00 in Snow Light Snow
9:37 PM 12.2 °F -3.7 °F 8.6 °F 85% 29.69 in 2.0 mi NW 15.0 mph 27.6 mph 0.00 in Snow Light Snow
9:53 PM 12.0 °F -6.9 °F 8.1 °F 84% 29.77 in 2.0 mi NW 21.9 mph 28.8 mph 0.00 in Snow Light Snow
10:00 PM 12.2 °F -6.3 °F 8.6 °F 85% 29.70 in 1.8 mi NW 20.7 mph 28.8 mph 0.00 in Snow Light Snow
10:19 PM 12.2 °F -5.8 °F 8.6 °F 85% 29.71 in 2.0 mi NW 19.6 mph 28.8 mph 0.00 in Snow Light Snow
10:35 PM 10.4 °F -8.2 °F 6.8 °F 85% 29.72 in 1.8 mi NW 19.6 mph 28.8 mph N/A Snow Light Snow
10:53 PM 10.9 °F -7.5 °F 7.0 °F 84% 29.79 in 1.5 mi NW 19.6 mph 29.9 mph 0.00 in Snow Light Snow
11:02 PM 10.4 °F -9.1 °F 6.8 °F 85% 29.72 in 1.8 mi NW 21.9 mph 28.8 mph 0.00 in Snow Light Snow
11:29 PM 10.4 °F -9.9 °F 6.8 °F 85% 29.73 in 2.0 mi NW 24.2 mph 32.2 mph 0.00 in Snow Light Snow
11:53 PM 10.0 °F -8.1 °F 6.1 °F 84% 29.81 in 2.5 mi NW 18.4 mph 28.8 mph 0.00 in Snow Light Snow